Location: Eyeline Observatory
(43.2182°N, 78.8632°W)
Time: 18:03:15
(UTC-04:00)

Vanguard 2 - Visible Passes

Search period start: 21 June 2018 00:00
Search period end: 01 July 2018 00:00
Orbit: 553 x 2939 km, 32.9° (Epoch: 20 June)

Date Brightness Start Highest point End Pass type
(mag) Time Alt. Az. Time Alt. Az. Time Alt. Az.
21 Jun 9.5 03:57:01 13° S 03:59:01 15° SSE 04:02:07 10° SE visible
22 Jun 9.3 04:13:39 14° SSW 04:16:59 20° S 04:20:42 10° ESE visible
23 Jun 10.1 02:28:51 12° SE 02:28:51 12° SE 02:29:55 10° SE visible
23 Jun 9.0 04:30:14 12° SW 04:34:56 24° S 04:38:57 10° ESE visible
24 Jun 9.7 02:45:22 19° SSE 02:45:22 19° SSE 02:49:00 10° ESE visible
24 Jun 8.8 04:47:06 10° SW 04:52:52 27° S 04:57:01 10° ESE visible
25 Jun 9.5 03:01:49 24° S 03:02:29 24° SSE 03:07:30 10° ESE visible
26 Jun 9.2 03:18:11 25° SSW 03:20:29 29° S 03:25:43 10° ESE visible
27 Jun 10.1 01:33:05 17° SE 01:33:05 17° SE 01:35:33 10° ESE visible
27 Jun 9.0 03:34:27 22° SW 03:38:27 33° S 03:43:47 10° ESE visible
28 Jun 9.7 01:49:14 26° SSE 01:49:14 26° SSE 01:54:03 10° ESE visible
28 Jun 8.9 03:50:34 17° SW 03:56:24 36° S 04:01:46 10° ESE visible
29 Jun10.900:03:50ESE00:03:50ESE23:43:19SSWvisible
29 Jun 9.5 02:05:09 33° S 02:05:32 33° SSE 02:12:18 10° ESE visible
29 Jun 8.8 04:06:28 11° WSW 04:14:19 37° S 04:19:39 10° ESE visible
30 Jun 10.4 00:19:26 16° ESE 00:19:26 16° ESE 00:21:39 10° ESE visible
30 Jun 9.3 02:20:44 33° SSW 02:23:32 38° S 02:30:24 10° ESE visible
30 Jun 8.8 04:24:07 10° WSW 04:32:12 36° S 04:37:26 10° SE visible
30 Jun 10.9 22:15:17 10° S 22:21:55 14° SE 22:22:14 14° SE visible
